TIME,DELAY(SENSOR),PRES,T(CTD),SAL,OXYGEN,RAWTEMP,T(OPTODE),TCPHASE,FLUOR,BETA(BETA700),BETA(BETA412),BETA(BETA440),CDOM,C(CSC),ED(ED411.90),ED(ED443.80),ED(ED489.40),ED(ED554.70),LU(LU412.20),LU(LU443.80),LU(LU489.40),LU(LU555.00),COMP,TILTX,TILTX(TILTY),CHECK
1349104418,5808,497.5100097656250000,17.2702999114990230,36.4155998229980500,224.4443054199218800,179.4987030029297000,17.2664508819580080,31.5864295959472660,50,101,94,69,55,13112,2146956342,2147514788,2147263990,2147466880,2147085915,2146954733,2147661897,2147120768,861,-1,8,62914
1349104535,5809,486.4899902343750000,17.3819007873535160,36.4380989074707000,227.2819976806640600,175.8715057373047000,17.3758602142334000,31.3927307128906250,50,101,94,67,54,13114,2146955721,2147516827,2147267081,2147466304,2147087177,2146952356,2147662701,2147112978,3576,-1,8,18035
1349104650,5804,475.6600036621094000,17.4822006225585940,36.4585990905761700,229.3742065429687500,172.4638977050781200,17.4786605834960940,31.2416191101074220,51,101,93,68,55,13114,2146955931,2147514752,2147261632,2147464822,2147086299,2146955638,2147661622,2147122240,3540,-1,8,21052
1349104765,5804,464.8900146484375000,17.5536994934082030,36.4729003906250000,230.5312042236328000,169.9833068847656200,17.5535106658935550,31.1504402160644530,50,101,95,68,55,13110,2146958171,2147512155,2147261897,2147465517,2147088100,2146956589,2147658770,2147121984,2888,-1,8,32179
1349104883,5803,453.9700012207031000,17.6263008117675780,36.4858016967773440,231.6725006103515600,167.8300933837890600,17.6184902191162100,31.0652503967285160,50,104,94,67,55,13113,2146957485,2147514916,2147259885,2147462381,2147087561,2146953097,2147657664,2147123529,2156,-2,8,37418
1349104998,5805,443.6300048828125000,17.6758003234863280,36.4922981262207000,231.0610961914062500,166.1062011718750000,17.6705093383789060,31.0720405578613280,50,101,93,68,55,13112,2146954989,2147514724,2147263597,2147461312,2147087881,2146955446,2147655387,2147121627,1463,-1,8,19949
1349105127,5805,432.1199951171875000,17.7714004516601560,36.5092010498046900,232.0055999755859400,162.9721984863281200,17.7651100158691400,30.9829902648925780,50,102,94,67,55,13114,2146955547,2147516187,2147263195,2147462134,2147086793,2146958308,2147654208,2147123794,990,-1,8,50210
1349105254,5805,420.8999938964844000,17.8276004791259770,36.5208015441894500,233.2642059326172000,161.0493927001953000,17.8231506347656250,30.8958301544189450,51,99,92,67,54,13115,2146955776,2147518107,2147260562,2147461284,2147087085,2146958528,2147658249,2147122368,3252,-2,8,7526
1349105370,5805,410.5100097656250000,17.8773002624511720,36.5307006835937500,234.1255950927734400,159.1777038574218800,17.8796596527099600,30.8287506103515620,50,101,93,67,54,13114,2146955163,2147520795,2147262665,2147464603,2147087524,2146955035,2147653650,2147126994,2415,-2,8,24423
1349105500,5804,398.7500000000000000,17.9671001434326170,36.5462989807128900,236.0287933349609400,156.2792968750000000,17.9671802520751950,30.6979808807373050,50,100,93,68,55,13111,2146955812,2147514230,2147261833,2147462573,2147088557,2146956114,2147655899,2147125193,1914,-1,8,19475
1349105615,5804,388.2399902343750000,18.0130996704101560,36.5553016662597660,236.2261962890625000,154.8851013183593800,18.0092792510986330,30.6701297760009770,50,101,94,67,54,13110,2146957092,2147515794,2147260214,2147462811,2147089572,2146954633,2147652278,2147124150,1510,-1,8,51307
1349105732,5804,377.7000122070312500,18.0536003112792970,36.5591011047363300,236.0592956542968800,153.5442047119140600,18.0497798919677730,30.6601390838623050,50,102,95,68,54,13112,2146951396,2147515081,2147260854,2147461595,2147088347,2146962011,2147657197,2147129334,1112,-1,9,62521
1349105859,5808,366.1400146484375000,18.0923995971679700,36.5640983581543000,235.7257995605468800,152.2492065429687500,18.0888996124267580,30.6589794158935550,51,100,94,68,55,13110,2146956635,2147511396,2147261677,2147461220,2147084452,2146959296,2147658733,2147124928,980,-1,8,62617
1349105986,5807,354.7399902343750000,18.1599998474121100,36.5718002319335940,235.1204986572265600,150.1053924560547000,18.1536598205566400,30.6592292785644530,50,101,94,67,55,13111,2146957449,2147517193,2147261897,2147460050,2147087241,2146961408,2147655707,2147123428,879,-1,8,20436
1349106104,5805,344.4200134277344000,18.1912994384765620,36.5751991271972660,233.9956054687500000,148.6734008789062500,18.1969203948974600,30.6944007873535160,50,101,93,67,54,13109,2146957339,2147516114,2147264164,2147460544,2147086336,2146961554,2147662765,2147126610,208,-2,8,30851
1349106231,5803,333.7000122070312500,18.2541999816894530,36.5819015502929700,233.6952972412109400,146.8719024658203000,18.2513504028320300,30.6851100921630860,50,102,93,68,55,13109,2146954816,2147514523,2147264082,2147456731,2147088548,2146964260,2147658678,2147127625,3186,-1,9,17181
1349106372,5805,322.3500061035156000,18.3122005462646500,36.5875015258789060,232.9779052734375000,145.0691986083984400,18.3058204650878900,30.6958198547363280,51,103,94,68,54,13106,2146955346,2147513270,2147264630,2147459812,2147086080,2146960667,2147658770,2147121060,1919,-1,9,40492
1349106511,5804,311.6600036621094000,18.3868007659912100,36.5965003967285160,232.5455932617187500,142.4972991943359400,18.3835506439209000,30.6824493408203120,50,100,94,68,54,13107,2146957293,2147519433,2147262893,2147457517,2147086829,2146964571,2147657572,2147127634,1300,-2,9,14791
1349106683,5805,298.2999877929687500,18.4939994812011720,36.6016998291015600,230.0133056640625000,138.9595947265625000,18.4904994964599600,30.7592391967773440,50,101,93,68,54,13108,2146959030,2147517229,2147262528,2147458980,2147088886,2146961170,2147659035,2147129014,722,-1,8,5021
1349106798,5810,287.5100097656250000,18.5618000030517580,36.6008987426757800,228.2599945068359400,136.4743041992187500,18.5656509399414060,30.8128604888916000,50,102,95,68,54,13107,2146954294,2147516717,2147263140,2147457892,2147086784,2146972525,2147673142,2147133824,21,-2,8,3283
1349106913,5809,276.1900024414062500,18.6611995697021500,36.6050987243652340,227.3446960449218800,133.2243041992187500,18.6639404296875000,30.8148994445800780,50,101,93,68,55,13107,2146956836,2147515273,2147262893,2147458605,2147086729,2146970276,2147682834,2147132242,3582,-1,9,28442
1349107031,5805,264.5700073242187500,18.8439998626709000,36.6106986999511700,227.5272064208984400,127.3442001342773400,18.8418407440185550,30.7274303436279300,51,103,93,68,54,13109,2146957321,2147516096,2147264365,2147457097,2147085997,2146975762,2147688420,2147128219,3497,-2,8,40880
1349107134,5804,254.4700012207031200,18.9283008575439450,36.5996017456054700,229.7189941406250000,124.4893035888671900,18.9282398223876950,30.5811595916748050,51,101,93,68,54,13109,2146955894,2147516534,2147262317,2147455725,2147079972,2146984685,2147703899,2147129636,2883,-1,8,10444
1349107249,5805,243.1999969482422000,18.9803009033203120,36.5740013122558600,237.1817016601562500,122.8205032348632800,18.9787597656250000,30.1997203826904300,51,100,93,68,54,13111,2146956973,2147517641,2147264347,2147457060,2147084077,2146993188,2147719241,2147131968,3054,-1,9,40358
1349107367,5802,231.6999969482422000,19.1261005401611330,36.5858001708984400,239.3283996582031200,117.7489013671875000,19.1323299407959000,30.0322303771972660,50,101,93,68,54,13105,2146956416,2147516251,2147260361,2147457261,2147087177,2146998747,2147729481,2147132681,3158,-2,9,31308
1349107482,5804,220.5899963378906200,19.1958999633789060,36.5796012878418000,244.0487060546875000,115.8660964965820300,19.1893596649169920,29.7899608612060550,50,101,93,68,53,13103,2146958180,2147515492,2147265956,2147456100,2147085284,2147032438,2147791314,2147136813,2441,-1,9,41408
1349107597,5803,209.4600067138672000,19.2653999328613280,36.5805015563964840,247.0377960205078000,113.5856018066406200,19.2584495544433600,29.6250591278076170,50,101,94,69,54,13103,2146958363,2147516123,2147267136,2147454409,2147087405,2147058916,2147846756,2147140745,2311,-2,8,27058
1349107715,5803,198.1699981689453000,19.3108997344970700,36.5741996765136700,249.0139007568359400,112.0468978881836000,19.3050804138183600,29.5167694091796880,51,103,94,67,53,13103,2146957394,2147518619,2147269668,2147452525,2147096237,2147096310,2147893924,2147142134,1653,-2,9,43928
1349107770,5804,193.0700073242187500,19.3384990692138670,36.5747985839843750,249.6936950683593800,111.0912017822265600,19.3340492248535160,29.4743309020996100,51,101,93,69,55,13102,2146957449,2147518144,2147268918,2147455780,2147097435,2147099593,2147899803,2147143433,1479,-1,9,13961
1349107825,5805,188.0000000000000000,19.3565006256103500,36.5747985839843750,250.3495941162109400,110.4626007080078100,19.3530902862548830,29.4370994567871100,51,103,94,69,54,13103,2146957531,2147520777,2147268233,2147453696,2147091858,2147077238,2147848804,2147137234,1218,-1,9,36764
1349107880,5806,183.0099945068359400,19.3679008483886720,36.5730018615722660,250.2290039062500000,109.9244995117187500,19.3694095611572270,29.4355201721191400,52,102,94,68,53,13099,2146955702,2147521737,2147278436,2147452790,2147097901,2147200676,2148061284,2147152859,901,-1,9,62382
1349107935,5806,178.0899963378906200,19.4027996063232420,36.5745010375976560,250.1203002929687500,108.9453964233398400,19.3990802764892580,29.4277400970459000,52,102,93,69,53,13100,2146955245,2147520493,2147276004,2147452416,2147099931,2147155072,2147975259,2147148187,773,-1,8,8668
1349108011,5806,171.7899932861328000,19.4522991180419920,36.5802001953125000,249.4149932861328000,107.2994003295898400,19.4489898681640620,29.4378795623779300,53,102,94,68,54,13100,2146955035,2147524004,2147282240,2147454601,2147117622,2147285641,2148194395,2147160832,423,-2,8,1371
1349108066,5806,167.6300048828125000,19.4916992187500000,36.5867996215820300,248.5644989013672000,106.0372009277343800,19.4872608184814450,29.4591102600097660,52,104,93,69,54,13096,2146958381,2147528210,2147284278,2147452781,2147130669,2147322422,2148243840,2147163355,117,-1,9,63725
1349108121,5807,163.6000061035156200,19.5335006713867200,36.5901985168457000,248.2810974121093800,104.7097015380859400,19.5275096893310550,29.4546909332275400,54,103,93,67,54,13097,2146961316,2147530532,2147286464,2147451172,2147130651,2147376329,2148323474,2147169645,3564,-2,9,27468
1349108176,5806,159.6900024414062500,19.5494003295898440,36.5924987792968750,247.9969940185547000,103.7507019042968800,19.5566005706787100,29.4551391601562500,54,103,94,68,54,13092,2146959689,2147524745,2147273764,2147454052,2147114541,2147202249,2148007040,2147148251,3266,-1,9,40639
1349108231,5804,155.8300018310547000,19.6142005920410160,36.5979003906250000,247.8410949707031200,101.8975982666015600,19.6128005981445300,29.4379596710205080,56,105,94,68,54,13093,2146957586,2147535168,2147295424,2147456466,2147163556,2147502500,2148514002,2147178240,3284,-2,9,20392
1349108286,5806,152.1399993896484400,19.6725997924804700,36.6020011901855500,247.7543029785156200,100.1318969726562500,19.6663703918457030,29.4190807342529300,59,104,94,68,53,13090,2146958171,2147535049,2147298861,2147451145,2147180644,2147586578,2148656246,2147187977,3012,-2,9,5244
1349108365,5805,147.6399993896484400,19.7150993347167970,36.6072998046875000,247.7014007568359400,98.6567687988281200,19.7111396789550780,29.4024791717529300,58,109,94,70,53,13088,2146958500,2147535835,2147298404,2147452461,2147189988,2147609051,2148665691,2147189430,2558,-1,9,65484
1349108456,5803,143.2700042724609400,19.7919998168945300,36.6132011413574200,246.8759002685547000,96.1248092651367200,19.7879791259765620,29.4068794250488280,63,110,94,68,54,13087,2146961600,2147546340,2147315264,2147452918,2147252928,2147885458,2149080466,2147216201,2314,-2,9,52271
1349108535,5808,139.5599975585937500,19.9067993164062500,36.6288986206054700,245.2266998291015600,92.3686065673828100,19.9020195007324220,29.4325904846191400,63,110,95,68,54,13076,2146960566,2147546642,2147314761,2147453906,2147270043,2147881526,2149050166,2147215076,2672,-1,9,6553
1349108614,5805,135.6999969482422000,19.9939002990722660,36.6366004943847660,244.1867065429687500,89.4213333129882800,19.9915409088134770,29.4415397644042970,65,115,94,69,54,13073,2146961481,2147537609,2147301613,2147452480,2147220141,2147610331,2148577636,2147185545,3401,-2,9,22358
1349108696,5806,131.6699981689453000,20.1308002471923830,36.6489982604980500,243.2191925048828000,85.1409530639648400,20.1215991973876950,29.4302291870117200,71,116,96,70,55,13061,2146958784,2147537984,2147300589,2147451629,2147236480,2147603574,2148530797,2147183250,492,-2,9,37370
1349108787,5807,127.3099975585937500,20.2301006317138670,36.6593017578125000,242.5989074707031200,81.9228134155273400,20.2194309234619140,29.4170703887939450,78,118,96,68,53,13064,2146971190,2147568228,2147362240,2147453229,2147454729,2148506340,2149905216,2147278171,841,-1,8,45738
1349108866,5807,123.7099990844726600,20.3083000183105470,36.6575012207031250,242.8601989746093800,79.3617401123046900,20.2973098754882800,29.3725299835205080,80,119,96,68,53,13050,2146969700,2147571136,2147364781,2147449929,2147513609,2148593892,2150002715,2147283456,744,-1,9,37079
1349108957,5806,119.8700027465820300,20.3341999053955080,36.6570014953613300,243.9369964599609400,78.3562393188476600,20.3278903961181640,29.3108005523681640,86,119,96,69,54,13055,2146973961,2147582262,2147380278,2147450276,2147584219,2148750308,2150185645,2147299538,540,-1,9,63149
1349109063,5806,115.5500030517578100,20.4750995635986330,36.6623992919921900,244.7057037353515600,74.0768432617187500,20.4580993652343750,29.2214698791503900,102,121,96,69,53,13046,2146979200,2147589732,2147393508,2147451840,2147701184,2149010541,2150510582,2147327058,224,-2,9,55765
1349109166,5808,111.9000015258789000,20.5935993194580080,36.6753997802734400,242.7913970947265600,70.0890426635742200,20.5794906616210940,29.2568092346191400,111,127,96,69,53,13037,2146986349,2147599680,2147417024,2147451894,2147844315,2149328621,2150900726,2147360493,362,-2,9,5991
1349109281,5807,108.2500000000000000,20.7252998352050780,36.6777992248535160,241.4575042724609400,65.7572097778320300,20.7114391326904300,29.2622108459472660,125,126,97,70,53,13008,2146996251,2147617746,2147441947,2147455232,2148061165,2149788498,2151469851,2147409856,60,-1,9,19067
1349109405,5802,103.7799987792968800,20.8407001495361330,36.6785011291503900,240.8179016113281200,61.4532318115234400,20.8426094055175780,29.2363796234130860,139,130,98,71,53,13000,2146997760,2147612544,2147415652,2147454171,2148140489,2149704155,2151239222,2147404443,3203,-2,9,16542
1349109508,5806,99.8099975585937500,20.9599990844726560,36.6817016601562500,241.1981048583984400,57.8558692932128900,20.9522991180419920,29.1731700897216800,139,134,98,70,53,12989,2147018660,2147663213,2147511049,2147456758,2148712932,2150929874,2152856722,2147551963,3323,-1,9,47168
1349109563,5810,97.6699981689453100,21.0788993835449220,36.6841011047363300,241.0783996582031200,53.6794281005859400,21.0797290802001950,29.1254291534423830,149,141,98,71,53,12982,2147040118,2147691812,2147575378,2147459986,2149068297,2151666038,2153803995,2147638619,29,-2,9,1589
1349109619,5806,95.6399993896484400,21.1557998657226560,36.6884002685546900,241.1251983642578000,51.5438117980957000,21.1449108123779300,29.0962791442871100,153,134,97,71,53,12978,2147044626,2147702290,2147567259,2147457938,2149245613,2151935552,2154092882,2147670336,3180,-2,9,35875
1349109698,5804,92.5299987792968800,21.2751998901367200,36.6871986389160160,242.0121002197265600,47.7533988952636700,21.2606601715087900,29.0077209472656250,154,136,97,71,53,12964,2146998043,2147587318,2147365056,2147450560,2148044580,2148866532,2149782528,2147318290,3322,-1,9,53078
1349109754,5806,89.7300033569336000,21.4323005676269530,36.6831016540527340,242.9591979980468800,42.9966087341308600,21.4060096740722660,28.9048500061035160,167,135,98,70,54,12951,2147003346,2147601819,2147389101,2147451026,2148243401,2149163510,2150106459,2147353974,201,-2,9,23295
1349109810,5802,87.2600021362304700,21.5230998992919920,36.6735992431640600,244.9147033691406200,39.4980888366699200,21.5129909515380860,28.7733497619628900,157,135,98,71,54,12931,2147043181,2147658450,2147463378,2147453440,2149064996,2150722797,2151956032,2147532489,3213,-1,9,14434
1349109866,5806,85.0100021362304700,21.7094001770019530,36.6847991943359400,245.1558074951172000,33.6879081726074200,21.6907691955566400,28.6892890930175780,159,133,99,72,55,12942,2147188480,2147933302,2147905883,2147480009,2152395456,2157368118,2160207140,2148316416,3455,-2,9,61544
1349109922,5809,83.1600036621093800,21.8624000549316400,36.6786003112793000,246.1179962158203000,28.8867702484130860,21.8377990722656250,28.5864696502685550,149,129,98,72,53,12930,2147226724,2147996662,2148026267,2147487250,2153016448,2158283126,2161023780,2148417325,314,-1,9,4757
1349110004,5808,81.3899993896484400,22.0179004669189450,36.6721992492675800,248.3905944824218800,23.9199199676513670,21.9900207519531250,28.4246807098388670,119,124,96,71,54,12958,2147269312,2148057901,2148105417,2147492635,2153857408,2159602880,2162219309,2148558820,747,-2,9,22621
1349110168,5810,79.7300033569336000,22.1620998382568360,36.6693992614746100,251.0066070556640600,19.7895202636718750,22.1167106628417970,28.2601509094238280,99,120,98,69,54,12992,2147102189,2147744886,2147554633,2147458249,2150390884,2152598098,2153398436,2147697380,3516,-2,9,59915
1349110320,5805,77.0299987792968800,22.4673995971679700,36.6571998596191400,253.8370056152343800,9.6437749862670900,22.4282798767089840,28.0134391784667970,92,121,97,71,54,12991,2147353545,2148164352,2148044891,2147480914,2156195209,2163160073,2164793801,2148834194,2402,-2,9,27705
1349110388,5804,75.0599975585937500,22.5606002807617200,36.6525001525878900,254.4920043945312500,6.8979091644287110,22.5126991271972660,27.9518699645996100,85,120,98,71,52,12984,2147185014,2147849545,2147637714,2147456374,2151922441,2154649462,2154737243,2147841133,2436,-1,9,6227
1349110468,5808,73.4000015258789000,22.6597003936767580,36.6501007080078100,254.6734924316406200,3.1563699245452880,22.6277999877929700,27.8979606628417970,86,117,97,70,53,12990,2147508105,2148370514,2148246774,2147497773,2159580973,2168289664,2169245001,2149318509,2700,-1,9,17421
1349110572,5805,71.5999984741211000,22.9146995544433600,36.6417007446289060,257.5958862304687500,-5.5254669189453125,22.8951892852783200,27.6692295074462900,84,119,96,71,53,12991,2147582592,2148468992,2148328246,2147499611,2161205385,2170487094,2170874057,2149511506,2066,-2,9,7341
1349110699,5803,68.8600006103515600,23.0772991180419920,36.6394004821777340,258.6828002929687500,-10.9876003265380860,23.0636405944824220,27.5573997497558600,84,117,96,70,52,12985,2147780672,2148734125,2148626157,2147520530,2165586752,2176669632,2176198272,2150146752,1421,-2,9,37421
1349110755,5806,67.2600021362304700,23.1256999969482420,36.6416015625000000,259.2579956054687500,-12.7286500930786130,23.1173706054687500,27.5124797821044920,84,118,98,69,51,12978,2147883364,2148868745,2148880009,2147554678,2167233609,2178661156,2177430665,2150290505,919,-2,9,8619
1349110835,5805,65.3700027465820300,23.1639995574951170,36.6344985961914060,259.7543029785156000,-14.1575403213500980,23.1614799499511720,27.4748191833496100,79,119,97,70,54,12970,2147976932,2148970560,2149000923,2147572059,2168869741,2180351698,2178077814,2150368877,502,-2,9,54525
1349110951,5802,62.7000007629394500,23.5228004455566400,36.6397018432617200,258.9396972656250000,-24.7804603576660160,23.4898109436035160,27.3784198760986330,73,121,97,71,51,12988,2148138587,2149109403,2148879332,2147541147,2173493147,2186227072,2182138285,2150801316,3095,-2,9,26947
1349111007,5806,60.6199989318847660,23.6877002716064450,36.6068992614746100,257.3348999023437500,-30.3689708709716800,23.6628208160400400,27.3762092590332030,73,117,97,71,52,12996,2148346733,2149355392,2149145426,2147571017,2177844242,2191588681,2186083849,2151297993,3470,-2,9,594
1349111063,5805,58.8400001525878900,23.8600006103515620,36.6007003784179700,256.4137878417969000,-35.9071197509765600,23.8344802856445300,27.3466396331787100,72,116,97,68,50,12987,2148516845,2149562998,2149422957,2147613257,2181028653,2195277458,2188650889,2151653787,160,-2,9,34495
1349111131,5807,57.2500000000000000,23.9944000244140620,36.5959014892578100,254.9214935302734400,-40.3750610351562500,23.9731101989746100,27.3539695739746100,72,142,98,69,52,12989,2148740827,2149854646,2149846939,2147685074,2185303817,2200666139,2193335488,2152223542,704,-1,9,56884
1349111258,5806,55.3600006103515600,24.0645008087158200,36.5938987731933600,253.1112976074218800,-43.3600082397460940,24.0657997131347660,27.3931102752685550,70,122,96,70,50,12990,2148915977,2150018669,2149972937,2147708498,2189203017,2204912804,2196234066,2152668022,814,-2,9,47995
1349111414,5805,52.4700012207031250,24.5716991424560550,36.5432014465332000,251.2595977783203000,-57.2848587036132800,24.4990196228027340,27.3011608123779300,67,123,98,70,53,12980,2149290139,2150376347,2150167606,2147719606,2197303625,2213903460,2201898322,2153404288,327,-2,9,1549
1349111628,5807,50.9000015258789060,24.8048000335693360,36.5433006286621100,254.3220977783203000,-66.9500732421875000,24.8005409240722660,27.0558891296386720,65,123,98,69,51,12975,2149692004,2150779629,2150507136,2147769856,2206253833,2223960201,2208757586,2154405677,358,-2,9,35608
1349111867,5802,48.9000015258789060,25.3833007812500000,36.4710998535156250,256.5545959472656000,-85.2302474975586000,25.3726997375488280,26.7435493469238280,65,124,98,70,50,12970,2150001554,2151019538,2150262555,2147636937,2213781376,2231740443,2214030601,2154991021,2186,-2,9,17448
1349112183,5805,46.7599983215332000,25.6298999786376950,36.4500007629394500,254.9040985107422000,-93.8218994140625000,25.6425209045410160,26.7075500488281250,64,127,97,71,51,12961,2150265316,2151193124,2150337965,2147647094,2219308662,2236864118,2216341531,2155293604,2587,-2,9,28640
1349112268,5807,44.8699989318847660,26.0461006164550780,36.4300003051757800,253.1609954833984400,-104.4232025146484400,25.9762592315673830,26.6515007019042970,64,124,97,70,51,12959,2150822518,2151780333,2150821376,2147689974,2231158957,2248858066,2224954569,2156690084,1794,-2,9,59082
1349112493,5804,42.7500000000000000,26.1872997283935550,36.4207992553710940,250.3374023437500000,-112.5496978759765600,26.2327308654785160,26.6705303192138670,63,125,98,70,50,12961,2151183442,2152047515,2150977024,2147708233,2238557595,2256668050,2229407104,2157338294,2891,-2,9,55399
1349112836,5808,40.8499984741210940,26.7959995269775400,36.3955001831054700,243.8446044921875000,-130.6154937744140600,26.8049106597900400,26.7264308929443360,62,122,97,71,50,12966,2151958811,2152729645,2151383222,2147734884,2255304795,2272804178,2239080256,2158611072,2669,-2,9,6041
1349112934,5805,38.7700004577636700,27.0440006256103500,36.4127006530761700,240.7756042480468800,-138.3330993652343800,27.0502300262451170,26.7650604248046880,59,118,98,70,50,12983,2152419465,2153165915,2151869531,2147846016,2261772781,2276324370,2240721801,2159377929,1332,-2,9,43915
1349113119,5808,36.8600006103515600,27.0979003906250000,36.3993988037109400,239.0451965332031200,-140.0966949462890600,27.1063709259033200,26.8189907073974600,58,119,97,70,50,12981,2153609938,2154317184,2153262464,2148407579,2289129563,2305059620,2259293257,2162278838,601,-2,9,47470
1349113178,5805,34.5900001525878900,27.0363998413085940,36.3440017700195300,238.2678985595703000,-138.4154052734375000,27.0528507232666000,26.8733100891113280,56,115,97,71,53,12992,2153069220,2153492516,2151799323,2147843428,2273127360,2282883693,2240250450,2159178267,3503,-2,9,25234
1349113224,5809,32.5900001525878900,27.0380992889404300,36.3305015563964840,237.8690032958984400,-138.7232055664062500,27.0626506805419920,26.8870792388916000,57,115,97,69,49,12996,2154949385,2155266477,2153067785,2147961910,2323806537,2338912128,2280191835,2165877531,3021,-2,9,46117